DMC3-FM1

Last updated on Sat Sep 05 2026 00:02:50 GMT+0000 (Coordinated Universal Time)

1 40715U 15032A 26247.74139938 -.00000061 00000+0 -11028-5 0 9998 2 40715 97.6342 109.7549 0006238 137.7112 222.4586 14.85809828601724
UTC large
Height (km)
Speed (km/s)
/
Latitude / Longitude
Inclination (degrees)
Orbital Period (minutes)
Azimuth
Elevation
Range (km)
Doppler Factor

Next 0 passes for location: London (51.5072 / 0.1276)

No passes found over London.
DMC3-FM1